Jesus Teran International Airport
MMAS : now visible

Airfield :











YOU CAN JOIN US ON...

 
LOGIN :

Register | Disclaimer

   EN    FR    IT 

 









Legend :    VFR   Marginal VFR   IFR   Intensive IFR   Very Intensive IFR
Visi :
Ceiling :
>= 8 km
>= 3000ft
5 to 8 km
1000 to 3000 ft
1500m to 5 km
500 to 1000 ft
800 to 1500m
200 to 500 ft
< 800m
< 200 ft
Symbols :   Thunderstorms  Fog  Heavy snow  Heavy precipitations  Wind > 20 kt






- Airport Elevation : 6112 ft
- IATA code : AGU


MMAS - Jesus Teran International

CURRENT METAR :
  • 222143Z 21006KT 9SM SCT030 BKN200 26/12 A3017 RMK 8/108 HZY

EXPIRED METARs :
  • 222044Z 24010KT 9SM SCT030 BKN200 24/13 A3019 RMK 8/108 MDT TCU ALQDS HZY
  • 221943Z 25010KT 8SM SCT030 BKN200 23/14 A3022 RMK 8/108 AC HZY

TAF AMD TAF MMAS
Valid from the 22 at 19:00 until the 23 at 18:00 UTC


221832Z 2219/2318 20015KT 6SM VC RA BKN030CB
TEMPO 2220/2224 3SM TSRA
FM230300 06010KT 5SM RA BKN030 OVC080
FM230900 12010KT P6SM SCT020 BKN100
TEMPO 2311/2314 5SM -RA BKN015
MMFR FIR / North America



MET'MAP, your aeronautical weather chart ! - Copyright ORBIFLY December 2007 - Disclaimer

ORBIFLY MET'MAP TEAM :

Programming & Development : Alexandra Zaïnal
Concept & original design : Baudouin d'Aumeries
Assistance for programming : Marc-Olivier Méhu
Technical & hardware support : Manuel Goepfert

Contact : metmap@orbifly.com




SOURCES & CREDITS :

   NOAA       Earth
Advisory